Tracking 19636 objects as of 25-May-2019
HD Live streaming from Space Station
objects crossing your sky now

MICRO LABSAT

Track MICRO LABSAT now!
10-day predictions
MICRO LABSAT is classified as:


NORAD ID: 27600
Int'l Code: 2002-056D
Perigee: 792.8 km
Apogee: 807.4 km
Inclination: 98.5 °
Period: 100.7 minutes
Semi major axis: 7171 km
RCS: 0.4739 m2 (medium)
Launch date: December 14, 2002
Source: Japan (JPN)
Launch site: TANEGASHIMA SPACE CENTER (TNSTA)

Research and development of microsatellite technology.
aabbcc
Your satellite tracking list
Your tracking list is empty




NASA's NSSDC Master Catalog

Two Line Element Set (TLE):
1 27600U 02056D   19144.90758303  .00000001  00000-0  17298-4 0  9994
2 27600  98.4885  92.6762 0010176 325.4860  34.5661 14.29628167857779
Source of the keplerian elements: AFSPC